Meteo Giornale » Osservazioni meteo Austria » Vienna-Schwechat

ore: 00:50 - Osservazioni Meteo Vienna-Schwechat
Lat. 48° 7' N Lon. 16° 34' E Alt. 183 metri s.l.m.

molto_nuvoloso Europe/Vienna

20 °C

Molto Nuvoloso

Temp. 24 Ore

20 °C

26 °C

Nord-Ovest

24 Km/h

Dew point 12 °C

Umidità 59 %

Visibilità  10 Km

Il sole sorge alle ore 04:51

Il sole tramonta alle ore 20:58

Data e Ora Cielo e Fenomeni T °C DP °C Um. % Pres. hPa Vis. km Vento km/h
Oggi h: 00:50 molto_nuvoloso Molto Nuvoloso 20 12 59 1020 10 NO 24
Oggi h: 00:20 molto_nuvoloso Molto Nuvoloso 20 12 59 1020 10 NO 20.3
Ieri h: 23:50 molto_nuvoloso Molto Nuvoloso 20 12 59 1019 10 NO 22.2
Ieri h: 23:20 molto_nuvoloso Molto Nuvoloso 20 13 64 1020 10 NO 20.3
Ieri h: 22:50 molto_nuvoloso Molto Nuvoloso 20 13 64 1020 10 NO 18.5
Ieri h: 22:20 molto_nuvoloso Molto Nuvoloso 21 12 56 1019 10 NO 22.2
Ieri h: 21:50 molto_nuvoloso Molto Nuvoloso 22 13 56 1019 10 NO 27.8
Ieri h: 21:20 molto_nuvoloso Molto Nuvoloso 22 14 60 1018 10 NO 22.2
Ieri h: 20:50 molto_nuvoloso Molto Nuvoloso 23 14 56 1018 10 NO 24
Ieri h: 20:20 molto_nuvoloso Molto Nuvoloso 23 14 56 1018 10 NO 24
Ieri h: 19:50 molto_nuvoloso Molto Nuvoloso 23 15 60 1018 10 NO 24
Ieri h: 19:20 molto_nuvoloso Molto Nuvoloso 24 15 57 1018 10 NO 24
Ieri h: 18:50 molto_nuvoloso Molto Nuvoloso 24 15 57 1018 10 NO 27.8
Ieri h: 18:20 molto_nuvoloso Molto Nuvoloso 24 16 60 1017 10 NO 33.3
Ieri h: 17:50 molto_nuvoloso Molto Nuvoloso 25 16 57 1017 10 NO 27.8
Ieri h: 17:20 molto_nuvoloso Molto Nuvoloso 24 16 60 1017 10 NO 31.5
Ieri h: 16:50 molto_nuvoloso Molto Nuvoloso 23 16 64 1017 10 NO 29.6
Ieri h: 16:20 molto_nuvoloso Molto Nuvoloso 24 15 57 1017 10 O/NO 33.3
Ieri h: 15:50 molto_nuvoloso Molto Nuvoloso 25 16 57 1017 10 NO 31.5
Ieri h: 15:20 molto_nuvoloso Molto Nuvoloso 25 15 53 1017 10 O/NO 38.8
Ieri h: 14:50 molto_nuvoloso Molto Nuvoloso 26 16 54 1017 10 O/NO 33.3
Ieri h: 14:20 molto_nuvoloso Molto Nuvoloso 26 16 54 1017 10 O/NO 31.5
Ieri h: 13:50 molto_nuvoloso Molto Nuvoloso 26 16 54 1017 10 O/NO 31.5
Ieri h: 13:20 nuvoloso Nuvoloso 26 16 54 1017 10 O/NO 27.8
Ieri h: 12:50 nuvoloso Nuvoloso 25 16 57 1017 10 NO 31.5
Ieri h: 12:20 nuvoloso Nuvoloso 26 16 54 1017 10 O/NO 27.8
Ieri h: 11:50 molto_nuvoloso Molto Nuvoloso 24 16 60 1017 10 O 29.6
Ieri h: 11:20 poco_nuvoloso Poco Nuvoloso 25 16 57 1017 10 O/NO 29.6
Ieri h: 10:50 poco_nuvoloso Poco Nuvoloso 24 16 60 1017 10 O 27.8
Ieri h: 10:20 nuvoloso Nuvoloso 23 16 64 1017 10 O/NO 27.8
Ieri h: 09:50 molto_nuvoloso Molto Nuvoloso 22 16 68 1017 10 NO 20.3
Ieri h: 09:20 coperto_temporali Temporale 23 16 64 1016 10 NO 25.9
Ieri h: 08:50 molto_nuvoloso Molto Nuvoloso 23 16 64 1016 10 NO 24
Ieri h: 08:20 molto_nuvoloso Molto Nuvoloso 22 16 68 1015 10 NO 22.2
Ieri h: 07:50 molto_nuvoloso Molto Nuvoloso 23 16 64 1015 10 NO 27.8
Ieri h: 07:20 nuvoloso Nuvoloso 22 16 68 1014 10 O/NO 25.9
Ieri h: 06:50 molto_nuvoloso Molto Nuvoloso 22 16 68 1014 10 O/NO 27.8
Ieri h: 06:20 molto_nuvoloso Molto Nuvoloso 22 16 68 1014 10 O/NO 27.8
Ieri h: 05:50 sereno Sereno 21 16 73 1013 10 NO 16.7
Ieri h: 05:20 sereno Sereno 21 16 73 1013 10 NO 13
Ieri h: 04:50 sereno Sereno 21 16 73 1013 10 NO 13
Ieri h: 04:20 sereno Sereno 21 15 68 1013 10 NO 11.1
Ieri h: 03:50 sereno Sereno 22 16 68 1013 10 NO 11.1
Ieri h: 03:20 sereno Sereno 21 16 73 1013 10 NO 11.1
Ieri h: 02:50 sereno Sereno 21 15 68 1013 10 N 5.5
Ieri h: 02:20 sereno Sereno 23 15 60 1013 10 O 9.3
Ieri h: 01:50 sereno Sereno 23 15 60 1013 10 NO 11.1